Fort Wayne, IN

9:23 PM EST on December 06, 2019 (GMT -0500)
Fort Wayne International

Weather History for KFWA - November, 2019

Change the Weather History Date:

Tuesday, November 19, 2019

  Actual Average Record
Temperature  
Mean Temperature 40 °F 40 °F  
Max Temperature 45 °F 48 °F 75 °F (1930)
Min Temperature 36 °F 32 °F 11 °F (1914)
Degree Days  
Heating Degree Days 24 25  
Month to date heating degree days 580 402  
Since 1 July heating degree days 963 911  
Cooling Degree Days 0 0  
Month to date cooling degree days 0 0  
Year to date cooling degree days 994 809  
Moisture  
Dew Point 35 °F    
Average Humidity 87    
Maximum Humidity 100    
Minimum Humidity 63    
Precipitation  
Precipitation 0.05 in 0.11 in 1.25 in (1985)
Month to date precipitation 0.41 1.91  
Year to date precipitation 34.96 34.39  
Snow  
Snow 0.00 in 0.00 in 3.40 in (1969)
Month to date snowfall 3.6 0.7  
Since 1 July snowfall 4.1 1.0  
Since 1 September snowfall 4.1 1.0  
Snow Depth 0.00 in    
Sea Level Pressure  
Sea Level Pressure 29.84 in    
Wind  
Wind Speed 3 mph ()    
Max Wind Speed 8 mph    
Max Gust Speed 11 mph    
Visibility 5.4 miles    
Events Fog , Rain    
T = Trace of Precipitation, MM = Missing Value Source: Averaged Metar Reports

Daily Weather History Graph

Daily Weather History Graph

Search for Another Location

Airport or City:

Astronomy

Nov. 19, 2019 Rise Set
Actual Time 7:32 AM EST 5:19 PM EST
Civil Twilight 7:02 AM EST 5:48 PM EST
Nautical Twilight 6:29 AM EST 6:22 PM EST
Astronomical Twilight 5:56 AM EST 6:55 PM EST
Moon No Moon Rise 1:42 PM EST (11/19)
Length of Visible Light 10h 46m
Length of Day
9h 46m
Waning Gibbous, 52% of the Moon is Illuminated
Nov 19
Waning Gibbous
Nov 19
Last Quarter
Nov 26
New
Dec 4
First Quarter
Dec 12
Full

Hourly Weather History & Observations

Time (EST) Temp. Windchill Dew Point Humidity Pressure Visibility Wind Dir Wind Speed Gust Speed Precip Events Conditions
12:09 AM 37.0 °F 33.3 °F 36.0 °F 96% 29.77 in 2.0 mi WSW 4.6 mph - 0.00 in   Light Drizzle
12:18 AM 37.0 °F 34.5 °F 36.0 °F 96% 29.77 in 1.0 mi WSW 3.5 mph - 0.00 in   Light Drizzle
12:25 AM 37.4 °F 33.8 °F 35.6 °F 93% 29.77 in 0.8 mi WSW 4.6 mph - N/A   Light Drizzle
12:54 AM 37.0 °F 32.4 °F 36.0 °F 96% 29.78 in 0.5 mi WSW 5.8 mph - 0.00 in Fog Drizzle
1:06 AM 37.0 °F 33.3 °F 36.0 °F 96% 29.77 in 1.0 mi WSW 4.6 mph - 0.00 in   Light Drizzle
1:15 AM 37.0 °F 32.4 °F 36.0 °F 96% 29.77 in 2.0 mi WSW 5.8 mph - 0.00 in   Light Drizzle
1:54 AM 37.0 °F 32.4 °F 36.0 °F 96% 29.79 in 3.0 mi WSW 5.8 mph - 0.00 in   Overcast
2:54 AM 37.0 °F 33.3 °F 35.1 °F 93% 29.80 in 3.0 mi WSW 4.6 mph - N/A   Overcast
3:54 AM 37.0 °F 34.5 °F 35.1 °F 93% 29.80 in 3.0 mi WSW 3.5 mph - N/A   Overcast
4:54 AM 37.0 °F 34.5 °F 35.1 °F 93% 29.78 in 4.0 mi WSW 3.5 mph - N/A   Overcast
5:07 AM 36.0 °F 32.1 °F 35.1 °F 97% 29.77 in 4.0 mi SW 4.6 mph - N/A   Overcast
5:54 AM 36.0 °F 32.1 °F 35.1 °F 97% 29.78 in 3.0 mi SW 4.6 mph - N/A   Overcast
6:54 AM 36.0 °F 33.3 °F 35.1 °F 97% 29.80 in 3.0 mi SSW 3.5 mph - N/A   Overcast
7:15 AM 36.0 °F 33.3 °F 35.1 °F 97% 29.79 in 2.0 mi South 3.5 mph - N/A   Overcast
7:54 AM 36.0 °F 32.1 °F 35.1 °F 97% 29.81 in 2.5 mi SSE 4.6 mph - N/A   Overcast
8:54 AM 37.0 °F 34.5 °F 34.0 °F 89% 29.83 in 7.0 mi South 3.5 mph - N/A   Overcast
9:54 AM 39.0 °F 35.7 °F 33.1 °F 79% 29.83 in 9.0 mi SSW 4.6 mph - N/A   Overcast
10:54 AM 39.9 °F 35.8 °F 32.0 °F 73% 29.83 in 10.0 mi SW 5.8 mph - N/A   Overcast
11:54 AM 41.0 °F 38.0 °F 32.0 °F 70% 29.84 in 10.0 mi WSW 4.6 mph - N/A   Overcast
12:45 PM 42.1 °F 40.2 °F 32.0 °F 67% 29.82 in 10.0 mi Variable 3.5 mph - N/A   Mostly Cloudy
12:54 PM 42.1 °F - 32.0 °F 67% 29.83 in 10.0 mi Calm Calm - N/A   Mostly Cloudy
1:54 PM 45.0 °F - 33.1 °F 63% 29.83 in 10.0 mi Calm Calm - N/A   Mostly Cloudy
2:54 PM 43.0 °F 41.3 °F 34.0 °F 71% 29.84 in 10.0 mi SSW 3.5 mph - 0.00 in Rain Light Rain
3:54 PM 43.0 °F - 34.0 °F 71% 29.86 in 10.0 mi Calm Calm - 0.00 in Rain Light Rain
4:54 PM 42.1 °F - 36.0 °F 79% 29.88 in 10.0 mi Calm Calm - 0.00 in   Overcast
5:54 PM 41.0 °F - 37.0 °F 86% 29.90 in 10.0 mi Calm Calm - 0.00 in Rain Light Rain
6:54 PM 39.9 °F 37.8 °F 37.0 °F 89% 29.92 in 6.0 mi NNW 3.5 mph - 0.01 in Rain Light Rain
7:54 PM 39.9 °F 36.7 °F 37.9 °F 93% 29.95 in 5.0 mi NW 4.6 mph - 0.02 in Rain Light Rain
8:54 PM 39.9 °F 37.8 °F 37.0 °F 89% 29.97 in 5.0 mi NW 3.5 mph - 0.01 in Rain Light Rain
9:54 PM 39.0 °F - 37.0 °F 93% 29.99 in 5.0 mi Calm Calm - 0.01 in   Overcast
10:54 PM 39.0 °F 36.8 °F 37.0 °F 93% 29.99 in 5.0 mi NW 3.5 mph - 0.00 in   Overcast
11:54 PM 39.0 °F - 37.0 °F 93% 30.00 in 5.0 mi Calm Calm - N/A   Overcast